Home > Weather > Neustrelitz > Past weeks

Flag for Germany Past Weather in Neustrelitz, Mecklenburg-Western Pomerania, Germany — Yesterday and Last 2 Weeks

Now
66 °F

Scattered clouds.


Feels Like: 66 °F
Forecast: 52 / 72 °F
Wind: 12 mph from West

Location: Laage

Current Time: Jun 29, 2016 at 2:58:01 PM

Latest Report: Jun 29, 2016 at 1:20 PM


Visibility: N/A

Pressure: 29.80 "Hg

Humidity: 73%

Dew Point: 57 °F

Location of NeustrelitzLocation

Past Weather in Neustrelitz — Graph

°F

Neustrelitz Temperature Yesterday

Maximum temperature yesterday: 66 °F (at 2:20 PM)
Minimum temperature yesterday: 55 °F (at 11:20 PM)
Average temperature yesterday: 62 °F

High & Low Weather Summary for the Past Weeks

 TemperatureHumidityPressure
High88 °F (Jun 23, 3:20 PM)100% (Jun 15, 12:20 AM)30.24 "Hg (Jun 15, 12:20 AM)
Low46 °F (Jun 20, 5:20 AM)40% (Jun 24, 2:20 PM)29.45 "Hg (Jun 14, 7:20 PM)
Average64 °F77%29.90 "Hg
* Reported Jun 14 1:20 PM — Jun 29 1:20 PM, Neustrelitz, Weather by CustomWeather, © 2016

Note: Actual official high and low records may vary slightly from our data, if they occured in-between our weather recording intervals... More about our weather records

Advertising

Neustrelitz Weather History for the Previous 24 Hours

Scroll right to see more
 ConditionsComfort  
Time TempWeatherWind HumidityBarometerVisibility
1:20 PM
Wed, Jun 29
66 °FScattered clouds.12 mph73%29.80 "HgN/A
12:20 PM63 °FBroken clouds.9 mph88%29.80 "HgN/A
11:20 AM61 °FBroken clouds.3 mph94%29.80 "HgN/A
10:20 AM59 °FSprinkles. Fog.6 mph94%29.80 "Hg2 mi
9:20 AM59 °FLight rain. Fog.7 mph94%29.80 "Hg3 mi
8:20 AM57 °FLight rain. Broken clouds.7 mph94%29.80 "HgN/A
7:20 AM57 °FLight rain. Broken clouds.1 mph94%29.83 "HgN/A
6:49 AM57 °FLight rain. More clouds than sun.1 mph94%29.86 "HgN/A
6:20 AM57 °FLight rain. Mostly cloudy.2 mph94%29.86 "HgN/A
5:20 AM57 °FPassing clouds.7 mph88%29.86 "HgN/A
4:20 AM55 °FPassing clouds.6 mph94%29.86 "HgN/A
3:20 AM54 °FPartly cloudy.5 mph94%29.89 "HgN/A
2:20 AM54 °FPassing clouds.3 mph88%29.92 "HgN/A
1:20 AM55 °FPassing clouds.3 mph82%29.95 "HgN/A
12:20 AM55 °FPassing clouds.2 mph82%29.95 "HgN/A
11:20 PM
Tue, Jun 28
55 °FPassing clouds.3 mph82%29.98 "HgN/A
10:20 PM59 °FScattered clouds.5 mph72%29.98 "HgN/A
9:20 PM61 °FPartly sunny.3 mph72%29.98 "HgN/A
8:20 PM63 °FPartly sunny.3 mph64%29.98 "HgN/A
7:20 PM66 °FScattered clouds.7 mph52%30.01 "HgN/A
6:20 PM66 °FBroken clouds.5 mph56%30.01 "HgN/A
5:20 PM66 °FPartly sunny.8 mph49%30.01 "HgN/A
4:20 PM66 °FBroken clouds.10 mph56%30.01 "HgN/A
3:20 PM66 °FScattered clouds.8 mph60%30.01 "HgN/A
2:20 PM66 °FScattered clouds.6 mph52%30.01 "HgN/A
Weather by CustomWeather, © 2016

See weather overviewHow to use our weather pages